Time,TemperatureF,DewpointF,PressureIn,WindDirection,WindDirectionDegrees,WindSpeedMPH,WindSpeedGustMPH,Humidity,HourlyPrecipIn,Conditions,Clouds,dailyrainin,SoftwareType,DateUTC
2013-04-10 00:02:00,9.0,3.0,29.38,SSW,210,2.0,5.0,75,0.00,,,0.00,,2013-04-10 08:02:00,
2013-04-10 00:12:00,9.0,3.0,29.38,SSW,210,2.0,5.0,75,0.00,,,0.00,,2013-04-10 08:12:00,
2013-04-10 00:22:00,9.0,2.0,29.39,West,267,1.0,6.0,73,0.00,,,0.00,,2013-04-10 08:22:00,
2013-04-10 00:32:00,9.0,2.0,29.39,West,267,1.0,6.0,73,0.00,,,0.00,,2013-04-10 08:32:00,
2013-04-10 00:42:00,9.0,2.0,29.39,West,267,1.0,6.0,73,0.00,,,0.00,,2013-04-10 08:42:00,
2013-04-10 00:52:00,8.0,1.0,29.41,SW,236,1.0,3.0,74,0.00,,,0.00,,2013-04-10 08:52:00,
2013-04-10 01:02:00,8.0,1.0,29.41,SW,236,1.0,3.0,74,0.00,,,0.00,,2013-04-10 09:02:00,
2013-04-10 01:12:00,8.0,1.0,29.41,SW,236,1.0,3.0,74,0.00,,,0.00,,2013-04-10 09:12:00,
2013-04-10 01:22:00,8.0,1.0,29.42,WNW,284,1.0,5.0,74,0.00,,,0.00,,2013-04-10 09:22:00,
2013-04-10 01:32:00,8.0,1.0,29.42,WNW,284,1.0,5.0,74,0.00,,,0.00,,2013-04-10 09:32:00,
2013-04-10 01:42:00,8.0,1.0,29.42,WNW,284,1.0,5.0,74,0.00,,,0.00,,2013-04-10 09:42:00,
2013-04-10 01:52:00,7.0,1.0,29.45,SW,233,0.0,4.0,75,0.00,,,0.00,,2013-04-10 09:52:00,
2013-04-10 02:02:00,7.0,1.0,29.45,SW,233,0.0,4.0,75,0.00,,,0.00,,2013-04-10 10:02:00,
2013-04-10 02:12:00,7.0,1.0,29.47,WSW,246,1.0,4.0,76,0.00,,,0.00,,2013-04-10 10:12:00,
2013-04-10 02:23:00,7.0,1.0,29.47,WSW,246,1.0,4.0,76,0.00,,,0.00,,2013-04-10 10:23:00,
2013-04-10 02:33:00,7.0,1.0,29.47,WSW,246,1.0,4.0,76,0.00,,,0.00,,2013-04-10 10:33:00,
2013-04-10 02:42:00,7.0,1.0,29.47,WSW,246,1.0,4.0,76,0.00,,,0.00,,2013-04-10 10:42:00,
2013-04-10 02:52:00,7.0,1.0,29.49,West,264,0.0,2.0,76,0.00,,,0.00,,2013-04-10 10:52:00,
2013-04-10 03:02:00,7.0,1.0,29.49,West,264,0.0,2.0,76,0.00,,,0.00,,2013-04-10 11:02:00,
2013-04-10 03:12:00,7.0,1.0,29.49,West,264,0.0,2.0,76,0.00,,,0.00,,2013-04-10 11:12:00,
2013-04-10 03:22:00,6.0,0.0,29.51,SW,225,0.0,3.0,75,0.00,,,0.00,,2013-04-10 11:22:00,
2013-04-10 03:32:00,6.0,0.0,29.51,SW,225,0.0,3.0,75,0.00,,,0.00,,2013-04-10 11:32:00,
2013-04-10 03:42:00,6.0,0.0,29.51,SW,225,0.0,3.0,75,0.00,,,0.00,,2013-04-10 11:42:00,
2013-04-10 03:52:00,6.0,0.0,29.52,West,271,2.0,5.0,75,0.00,,,0.00,,2013-04-10 11:52:00,
2013-04-10 04:02:00,6.0,0.0,29.52,West,271,2.0,5.0,75,0.00,,,0.00,,2013-04-10 12:02:00,
2013-04-10 04:12:00,6.0,0.0,29.52,West,271,2.0,5.0,75,0.00,,,0.00,,2013-04-10 12:12:00,
2013-04-10 04:22:00,5.0,-1.0,29.54,SW,234,0.0,1.0,76,0.00,,,0.00,,2013-04-10 12:22:00,
2013-04-10 04:32:00,5.0,-1.0,29.54,SW,234,0.0,1.0,76,0.00,,,0.00,,2013-04-10 12:32:00,
2013-04-10 04:42:00,5.0,-1.0,29.54,SW,234,0.0,1.0,76,0.00,,,0.00,,2013-04-10 12:42:00,
2013-04-10 04:52:00,5.0,-1.0,29.54,SW,229,0.0,1.0,76,0.00,,,0.00,,2013-04-10 12:52:00,
2013-04-10 05:02:00,5.0,-1.0,29.54,SW,229,0.0,1.0,76,0.00,,,0.00,,2013-04-10 13:02:00,
2013-04-10 05:12:00,5.0,-1.0,29.54,SW,229,0.0,1.0,76,0.00,,,0.00,,2013-04-10 13:12:00,
2013-04-10 05:23:00,5.0,-1.0,29.55,SW,229,0.0,1.0,76,0.00,,,0.00,,2013-04-10 13:23:00,
2013-04-10 05:32:00,5.0,-1.0,29.55,SW,229,0.0,1.0,76,0.00,,,0.00,,2013-04-10 13:32:00,
2013-04-10 05:42:00,5.0,-1.0,29.55,SW,229,0.0,1.0,76,0.00,,,0.00,,2013-04-10 13:42:00,
2013-04-10 05:52:00,4.0,-2.0,29.57,SW,229,0.0,1.0,76,0.00,,,0.00,,2013-04-10 13:52:00,
2013-04-10 06:02:00,4.0,-2.0,29.57,SW,229,0.0,1.0,76,0.00,,,0.00,,2013-04-10 14:02:00,
2013-04-10 06:12:00,4.0,-2.0,29.57,SW,229,0.0,1.0,76,0.00,,,0.00,,2013-04-10 14:12:00,
2013-04-10 06:22:00,4.0,-2.0,29.58,SW,229,0.0,1.0,75,0.00,,,0.00,,2013-04-10 14:22:00,
2013-04-10 06:32:00,4.0,-2.0,29.58,SW,229,0.0,1.0,75,0.00,,,0.00,,2013-04-10 14:32:00,
2013-04-10 06:42:00,4.0,-2.0,29.58,SW,229,0.0,1.0,75,0.00,,,0.00,,2013-04-10 14:42:00,
2013-04-10 06:52:00,4.0,-2.0,29.60,SW,229,0.0,1.0,75,0.00,,,0.00,,2013-04-10 14:52:00,
2013-04-10 07:02:00,4.0,-2.0,29.60,SW,229,0.0,1.0,75,0.00,,,0.00,,2013-04-10 15:02:00,
2013-04-10 07:12:00,4.0,-2.0,29.60,SW,229,0.0,1.0,75,0.00,,,0.00,,2013-04-10 15:12:00,
2013-04-10 07:22:00,3.0,-3.0,29.61,SW,229,0.0,1.0,75,0.00,,,0.00,,2013-04-10 15:22:00,
2013-04-10 07:32:00,3.0,-3.0,29.61,SW,229,0.0,1.0,75,0.00,,,0.00,,2013-04-10 15:32:00,
2013-04-10 07:42:00,3.0,-3.0,29.61,SW,229,0.0,1.0,75,0.00,,,0.00,,2013-04-10 15:42:00,
2013-04-10 07:52:00,3.0,-3.0,29.63,SW,229,0.0,1.0,74,0.00,,,0.00,,2013-04-10 15:52:00,
2013-04-10 08:02:00,3.0,-3.0,29.63,SW,229,0.0,1.0,74,0.00,,,0.00,,2013-04-10 16:02:00,
2013-04-10 08:12:00,3.0,-3.0,29.63,SW,229,0.0,1.0,74,0.00,,,0.00,,2013-04-10 16:12:00,
2013-04-10 08:23:00,3.0,-3.0,29.65,SW,219,0.0,2.0,74,0.00,,,0.00,,2013-04-10 16:23:00,
2013-04-10 08:32:00,3.0,-3.0,29.65,SW,219,0.0,2.0,74,0.00,,,0.00,,2013-04-10 16:32:00,
2013-04-10 08:42:00,3.0,-3.0,29.65,SW,219,0.0,2.0,74,0.00,,,0.00,,2013-04-10 16:42:00,
2013-04-10 08:52:00,3.0,-3.0,29.65,SW,214,1.0,3.0,74,0.00,,,0.00,,2013-04-10 16:52:00,
2013-04-10 09:02:00,3.0,-3.0,29.65,SW,214,1.0,3.0,74,0.00,,,0.00,,2013-04-10 17:02:00,
2013-04-10 09:12:00,3.0,-4.0,29.67,SSW,209,0.0,3.0,73,0.00,,,0.00,,2013-04-10 17:12:00,
2013-04-10 09:22:00,3.0,-4.0,29.67,SSW,209,0.0,3.0,73,0.00,,,0.00,,2013-04-10 17:22:00,
2013-04-10 09:33:00,3.0,-4.0,29.67,SSW,209,0.0,3.0,73,0.00,,,0.00,,2013-04-10 17:33:00,
2013-04-10 09:42:00,3.0,-4.0,29.67,SSW,209,0.0,3.0,73,0.00,,,0.00,,2013-04-10 17:42:00,
2013-04-10 09:52:00,4.0,-3.0,29.68,SSW,206,2.0,4.0,73,0.00,,,0.00,,2013-04-10 17:52:00,
2013-04-10 10:02:00,4.0,-3.0,29.68,SSW,206,2.0,4.0,73,0.00,,,0.00,,2013-04-10 18:02:00,
2013-04-10 10:12:00,4.0,-3.0,29.68,SSW,206,2.0,4.0,73,0.00,,,0.00,,2013-04-10 18:12:00,
2013-04-10 10:22:00,5.0,-2.0,29.69,SSW,194,1.0,3.0,71,0.00,,,0.00,,2013-04-10 18:22:00,
2013-04-10 10:32:00,5.0,-2.0,29.69,SSW,194,1.0,3.0,71,0.00,,,0.00,,2013-04-10 18:32:00,
2013-04-10 10:42:00,5.0,-2.0,29.69,SSW,194,1.0,3.0,71,0.00,,,0.00,,2013-04-10 18:42:00,
2013-04-10 10:52:00,5.0,-2.0,29.70,South,186,1.0,4.0,71,0.00,,,0.00,,2013-04-10 18:52:00,
2013-04-10 11:02:00,5.0,-2.0,29.70,South,186,1.0,4.0,71,0.00,,,0.00,,2013-04-10 19:02:00,
2013-04-10 11:12:00,5.0,-2.0,29.70,South,186,1.0,4.0,71,0.00,,,0.00,,2013-04-10 19:12:00,
2013-04-10 11:22:00,6.0,-2.0,29.71,SSW,213,2.0,7.0,70,0.00,,,0.00,,2013-04-10 19:22:00,
2013-04-10 11:32:00,6.0,-2.0,29.71,SSW,213,2.0,7.0,70,0.00,,,0.00,,2013-04-10 19:32:00,
2013-04-10 11:42:00,6.0,-2.0,29.71,SSW,213,2.0,7.0,70,0.00,,,0.00,,2013-04-10 19:42:00,
2013-04-10 11:52:00,7.0,-1.0,29.72,South,175,2.0,7.0,68,0.00,,,0.00,,2013-04-10 19:52:00,
2013-04-10 12:02:00,7.0,-1.0,29.72,South,175,2.0,7.0,68,0.00,,,0.00,,2013-04-10 20:02:00,
2013-04-10 12:12:00,7.0,-1.0,29.72,South,175,2.0,7.0,68,0.00,,,0.00,,2013-04-10 20:12:00,
2013-04-10 12:22:00,8.0,0.0,29.72,SSW,200,3.0,6.0,68,0.00,,,0.00,,2013-04-10 20:22:00,
2013-04-10 12:32:00,8.0,0.0,29.72,SSW,200,3.0,6.0,68,0.00,,,0.00,,2013-04-10 20:32:00,
2013-04-10 12:42:00,8.0,0.0,29.72,SSW,200,3.0,6.0,68,0.00,,,0.00,,2013-04-10 20:42:00,
2013-04-10 12:52:00,9.0,2.0,29.73,SW,216,2.0,7.0,71,0.00,,,0.00,,2013-04-10 20:52:00,
2013-04-10 13:02:00,9.0,2.0,29.73,SW,216,2.0,7.0,71,0.00,,,0.00,,2013-04-10 21:02:00,
2013-04-10 13:12:00,9.0,2.0,29.73,SW,216,2.0,7.0,71,0.00,,,0.00,,2013-04-10 21:12:00,
2013-04-10 13:22:00,9.0,2.0,29.74,West,277,3.0,6.0,74,0.00,,,0.00,,2013-04-10 21:22:00,
2013-04-10 13:32:00,9.0,2.0,29.74,West,277,3.0,6.0,74,0.00,,,0.00,,2013-04-10 21:32:00,
2013-04-10 13:42:00,9.0,2.0,29.74,West,277,3.0,6.0,74,0.00,,,0.00,,2013-04-10 21:42:00,
2013-04-10 13:52:00,9.0,3.0,29.75,West,272,0.0,6.0,75,0.00,,,0.00,,2013-04-10 21:52:00,
2013-04-10 14:03:00,9.0,3.0,29.75,West,272,0.0,6.0,75,0.00,,,0.00,,2013-04-10 22:03:00,
2013-04-10 14:12:00,9.0,3.0,29.75,West,272,0.0,6.0,75,0.00,,,0.00,,2013-04-10 22:12:00,
2013-04-10 14:22:00,12.0,2.0,29.75,SW,228,2.0,7.0,63,0.00,,,0.00,,2013-04-10 22:22:00,
2013-04-10 14:33:00,12.0,2.0,29.75,SW,228,2.0,7.0,63,0.00,,,0.00,,2013-04-10 22:33:00,
2013-04-10 14:42:00,12.0,2.0,29.75,SW,228,2.0,7.0,63,0.00,,,0.00,,2013-04-10 22:42:00,
2013-04-10 14:52:00,12.0,0.0,29.76,WSW,246,3.0,7.0,58,0.00,,,0.00,,2013-04-10 22:52:00,
2013-04-10 15:02:00,12.0,0.0,29.76,WSW,246,3.0,7.0,58,0.00,,,0.00,,2013-04-10 23:02:00,
2013-04-10 15:12:00,12.0,0.0,29.76,WSW,246,3.0,7.0,58,0.00,,,0.00,,2013-04-10 23:12:00,
2013-04-10 15:22:00,13.0,0.0,29.76,SW,219,4.0,7.0,56,0.00,,,0.00,,2013-04-10 23:22:00,
2013-04-10 15:32:00,13.0,0.0,29.76,SW,219,4.0,7.0,56,0.00,,,0.00,,2013-04-10 23:32:00,
2013-04-10 15:42:00,13.0,0.0,29.76,SW,219,4.0,7.0,56,0.00,,,0.00,,2013-04-10 23:42:00,
2013-04-10 15:52:00,13.0,0.0,29.77,South,190,4.0,9.0,54,0.00,,,0.00,,2013-04-10 23:52:00,
2013-04-10 16:02:00,13.0,0.0,29.77,South,190,4.0,9.0,54,0.00,,,0.00,,2013-04-11 00:02:00,
2013-04-10 16:12:00,13.0,0.0,29.77,South,190,4.0,9.0,54,0.00,,,0.00,,2013-04-11 00:12:00,
2013-04-10 16:22:00,13.0,-1.0,29.77,West,279,2.0,8.0,53,0.00,,,0.00,,2013-04-11 00:22:00,
2013-04-10 16:32:00,13.0,-1.0,29.77,West,279,2.0,8.0,53,0.00,,,0.00,,2013-04-11 00:32:00,
2013-04-10 16:42:00,13.0,-1.0,29.77,West,279,2.0,8.0,53,0.00,,,0.00,,2013-04-11 00:42:00,
2013-04-10 16:52:00,14.0,0.0,29.77,SSW,207,4.0,8.0,52,0.00,,,0.00,,2013-04-11 00:52:00,
2013-04-10 17:02:00,14.0,0.0,29.77,SSW,207,4.0,8.0,52,0.00,,,0.00,,2013-04-11 01:02:00,
2013-04-10 17:12:00,14.0,0.0,29.77,SSW,207,4.0,8.0,52,0.00,,,0.00,,2013-04-11 01:12:00,
2013-04-10 17:22:00,14.0,0.0,29.78,South,188,3.0,6.0,52,0.00,,,0.00,,2013-04-11 01:22:00,
2013-04-10 17:32:00,14.0,0.0,29.78,South,188,3.0,6.0,52,0.00,,,0.00,,2013-04-11 01:32:00,
2013-04-10 17:42:00,14.0,0.0,29.78,South,188,3.0,6.0,52,0.00,,,0.00,,2013-04-11 01:42:00,
2013-04-10 17:52:00,14.0,0.0,29.78,SSW,203,2.0,6.0,54,0.00,,,0.00,,2013-04-11 01:52:00,
2013-04-10 18:02:00,14.0,0.0,29.78,SSW,203,2.0,6.0,54,0.00,,,0.00,,2013-04-11 02:02:00,
2013-04-10 18:12:00,14.0,0.0,29.78,SSW,203,2.0,6.0,54,0.00,,,0.00,,2013-04-11 02:12:00,
2013-04-10 18:22:00,14.0,-1.0,29.78,SSW,198,3.0,7.0,51,0.00,,,0.00,,2013-04-11 02:22:00,
2013-04-10 18:32:00,14.0,-1.0,29.78,SSW,198,3.0,7.0,51,0.00,,,0.00,,2013-04-11 02:32:00,
2013-04-10 18:52:00,13.0,-1.0,29.79,WSW,250,2.0,7.0,52,0.00,,,0.00,,2013-04-11 02:52:00,
2013-04-10 19:02:00,13.0,-1.0,29.79,WSW,250,2.0,7.0,52,0.00,,,0.00,,2013-04-11 03:02:00,
2013-04-10 19:12:00,13.0,-1.0,29.79,WSW,250,2.0,7.0,52,0.00,,,0.00,,2013-04-11 03:12:00,
2013-04-10 19:22:00,13.0,-1.0,29.79,SSW,196,3.0,6.0,53,0.00,,,0.00,,2013-04-11 03:22:00,
2013-04-10 19:33:00,13.0,-1.0,29.79,SSW,196,3.0,6.0,53,0.00,,,0.00,,2013-04-11 03:33:00,
2013-04-10 19:43:00,13.0,-1.0,29.79,SSW,195,1.0,4.0,52,0.00,,,0.00,,2013-04-11 03:43:00,
2013-04-10 19:53:00,13.0,-1.0,29.79,SSW,195,1.0,4.0,52,0.00,,,0.00,,2013-04-11 03:53:00,
2013-04-10 20:03:00,13.0,-1.0,29.79,SSW,195,1.0,4.0,52,0.00,,,0.00,,2013-04-11 04:03:00,
2013-04-10 20:12:00,13.0,-1.0,29.80,West,275,1.0,5.0,52,0.00,,,0.00,,2013-04-11 04:12:00,
2013-04-10 20:22:00,13.0,-1.0,29.80,West,275,1.0,5.0,52,0.00,,,0.00,,2013-04-11 04:22:00,
2013-04-10 20:33:00,13.0,-1.0,29.80,West,275,1.0,5.0,52,0.00,,,0.00,,2013-04-11 04:33:00,
2013-04-10 20:42:00,13.0,-1.0,29.80,West,275,1.0,5.0,52,0.00,,,0.00,,2013-04-11 04:42:00,
2013-04-10 20:52:00,11.0,-2.0,29.82,West,281,0.0,1.0,54,0.00,,,0.00,,2013-04-11 04:52:00,
2013-04-10 21:02:00,11.0,-2.0,29.82,West,281,0.0,1.0,54,0.00,,,0.00,,2013-04-11 05:02:00,
2013-04-10 21:12:00,11.0,-2.0,29.82,West,281,0.0,1.0,54,0.00,,,0.00,,2013-04-11 05:12:00,
2013-04-10 21:22:00,10.0,-3.0,29.83,West,281,0.0,2.0,56,0.00,,,0.00,,2013-04-11 05:22:00,
2013-04-10 21:32:00,10.0,-3.0,29.83,West,281,0.0,2.0,56,0.00,,,0.00,,2013-04-11 05:32:00,
2013-04-10 21:42:00,10.0,-3.0,29.83,West,281,0.0,2.0,56,0.00,,,0.00,,2013-04-11 05:42:00,
2013-04-10 21:52:00,7.0,-4.0,29.84,West,281,0.0,1.0,61,0.00,,,0.00,,2013-04-11 05:52:00,
2013-04-10 22:02:00,7.0,-4.0,29.84,West,281,0.0,1.0,61,0.00,,,0.00,,2013-04-11 06:02:00,
2013-04-10 22:12:00,7.0,-4.0,29.84,West,281,0.0,1.0,61,0.00,,,0.00,,2013-04-11 06:12:00,
2013-04-10 22:22:00,5.0,-5.0,29.85,West,281,0.0,1.0,63,0.00,,,0.00,,2013-04-11 06:22:00,
2013-04-10 22:32:00,5.0,-5.0,29.85,West,281,0.0,1.0,63,0.00,,,0.00,,2013-04-11 06:32:00,
2013-04-10 22:42:00,5.0,-5.0,29.85,West,281,0.0,1.0,63,0.00,,,0.00,,2013-04-11 06:42:00,
2013-04-10 22:52:00,3.0,-6.0,29.86,West,281,0.0,2.0,65,0.00,,,0.00,,2013-04-11 06:52:00,
2013-04-10 23:02:00,3.0,-6.0,29.86,West,281,0.0,2.0,65,0.00,,,0.00,,2013-04-11 07:02:00,
2013-04-10 23:12:00,3.0,-6.0,29.86,West,281,0.0,2.0,65,0.00,,,0.00,,2013-04-11 07:12:00,
2013-04-10 23:21:00,2.0,-8.0,29.88,West,281,0.0,2.0,63,0.00,,,0.00,,2013-04-11 07:21:00,
2013-04-10 23:32:00,2.0,-8.0,29.88,West,281,0.0,2.0,63,0.00,,,0.00,,2013-04-11 07:32:00,
2013-04-10 23:42:00,2.0,-8.0,29.88,West,281,0.0,2.0,63,0.00,,,0.00,,2013-04-11 07:42:00,
2013-04-10 23:52:00,1.0,-7.0,29.88,West,281,0.0,1.0,67,0.00,,,0.00,,2013-04-11 07:52:00,